RYR2ST EGSS-LIRP

Flight info

Callsign RYR2ST
Flight time N/A
Altitude 35000
Route CLN M84 KONAN UL607 KOK DCT IDOSA DCT SUTAL DCT GTQ DCT DEVDI DCT ODINA DCT SRN DCT OSBUL DCT EKPAL DCT MIVKI
Aircraft B738/M-SDE3FGILRWY/SB1

Departure

Time N/A
Airport London Stansted Airport (EGSS)

Arrival

Time 2026-04-20 13:04
Airport Pisa International Airport (LIRP)
Time Latitude Longitude Altitude Speed Heading
2026-04-20 12:46 44.58635 9.99898 28808 ft 408 kts 175°
2026-04-20 12:46 44.55875 10.00615 28343 ft 404 kts 175°
2026-04-20 12:46 44.53141 10.01311 27867 ft 401 kts 175°
2026-04-20 12:47 44.50411 10.01995 27411 ft 398 kts 176°
2026-04-20 12:47 44.47701 10.02668 26936 ft 394 kts 175°
2026-04-20 12:47 44.45004 10.03334 26504 ft 390 kts 175°
2026-04-20 12:47 44.43339 10.03745 26214 ft 388 kts 175°
2026-04-20 12:48 44.40703 10.04396 25782 ft 385 kts 175°
2026-04-20 12:48 44.38088 10.05041 25317 ft 382 kts 175°
2026-04-20 12:48 44.35475 10.05683 24874 ft 378 kts 175°
2026-04-20 12:48 44.32901 10.06316 24466 ft 374 kts 175°
2026-04-20 12:49 44.30376 10.06936 24018 ft 371 kts 175°
2026-04-20 12:49 44.27818 10.07562 23341 ft 375 kts 175°
2026-04-20 12:49 44.25249 10.08184 22366 ft 383 kts 174°
2026-04-20 12:49 44.22632 10.08820 21287 ft 387 kts 174°
2026-04-20 12:50 44.19960 10.09469 20113 ft 391 kts 174°
2026-04-20 12:50 44.17289 10.10119 18910 ft 395 kts 174°
2026-04-20 12:50 44.14590 10.10778 17691 ft 397 kts 174°
2026-04-20 12:50 44.11908 10.11435 16853 ft 391 kts 173°
2026-04-20 12:51 44.09244 10.12091 15999 ft 384 kts 173°
2026-04-20 12:51 44.06670 10.12726 15218 ft 374 kts 173°
2026-04-20 12:51 44.04154 10.13428 14419 ft 367 kts 170°
2026-04-20 12:51 44.01693 10.14119 13627 ft 359 kts 173°
2026-04-20 12:52 43.99313 10.14603 13289 ft 337 kts 175°
2026-04-20 12:52 43.97052 10.14995 13019 ft 317 kts 176°
2026-04-20 12:52 43.94926 10.15360 12753 ft 303 kts 176°
2026-04-20 12:52 43.92855 10.15732 12262 ft 298 kts 176°
2026-04-20 12:53 43.90826 10.16115 11635 ft 298 kts 176°
2026-04-20 12:53 43.88757 10.16521 10935 ft 299 kts 175°
2026-04-20 12:53 43.86709 10.16937 10312 ft 296 kts 175°
2026-04-20 12:53 43.84689 10.17352 9711 ft 293 kts 175°
2026-04-20 12:54 43.82704 10.17759 9107 ft 291 kts 175°
2026-04-20 12:54 43.80705 10.18168 8507 ft 288 kts 175°
2026-04-20 12:54 43.78757 10.18566 7928 ft 284 kts 175°
2026-04-20 12:54 43.76820 10.18961 7346 ft 281 kts 175°
2026-04-20 12:55 43.74894 10.19354 6793 ft 277 kts 175°
2026-04-20 12:55 43.73037 10.19734 6489 ft 268 kts 175°
2026-04-20 12:55 43.71227 10.20105 6360 ft 257 kts 175°
2026-04-20 12:55 43.69484 10.20462 6272 ft 246 kts 175°
2026-04-20 12:56 43.67829 10.20687 6212 ft 237 kts 185°
2026-04-20 12:56 43.66239 10.20222 6009 ft 234 kts 210°
2026-04-20 12:56 43.64931 10.18947 5723 ft 229 kts 222°
2026-04-20 12:56 43.63721 10.17532 5450 ft 226 kts 221°
2026-04-20 12:57 43.62501 10.16193 5192 ft 223 kts 219°
2026-04-20 12:57 43.61266 10.14912 4936 ft 220 kts 218°
2026-04-20 12:57 43.60050 10.13674 4686 ft 217 kts 217°
2026-04-20 12:57 43.58762 10.12672 4417 ft 214 kts 199°
2026-04-20 12:58 43.57306 10.12546 4191 ft 208 kts 169°
2026-04-20 12:58 43.55986 10.13261 4006 ft 204 kts 152°
2026-04-20 12:58 43.54888 10.14472 3762 ft 202 kts 131°
2026-04-20 12:58 43.54281 10.16212 3409 ft 205 kts 103°
2026-04-20 12:59 43.54195 10.18136 3207 ft 201 kts 88°
2026-04-20 12:59 43.54279 10.20081 3150 ft 205 kts 88°
2026-04-20 12:59 43.54360 10.21996 3050 ft 198 kts 88°
2026-04-20 12:59 43.54456 10.23878 2967 ft 196 kts 83°
2026-04-20 13:00 43.54946 10.25612 2903 ft 197 kts 50°
2026-04-20 13:00 43.55986 10.26839 2810 ft 200 kts 32°
2026-04-20 13:00 43.57155 10.27898 2485 ft 203 kts 35°
2026-04-20 13:00 43.58290 10.29060 2211 ft 201 kts 38°
2026-04-20 13:01 43.59367 10.30200 1970 ft 189 kts 38°
2026-04-20 13:01 43.60400 10.31246 1701 ft 175 kts 37°
2026-04-20 13:01 43.61340 10.32201 1470 ft 165 kts 38°
2026-04-20 13:01 43.62236 10.33131 1252 ft 159 kts 37°
2026-04-20 13:02 43.63123 10.34035 1055 ft 160 kts 36°
2026-04-20 13:02 43.64016 10.34957 847 ft 160 kts 37°
2026-04-20 13:02 43.64910 10.35864 639 ft 160 kts 34°
2026-04-20 13:02 43.65811 10.36775 416 ft 159 kts 37°
2026-04-20 13:03 43.66679 10.37682 216 ft 157 kts 34°
2026-04-20 13:03 43.67560 10.38584 16 ft 155 kts 35°
2026-04-20 13:03 43.68325 10.39365 8 ft 107 kts 33°
2026-04-20 13:03 43.68758 10.39818 8 ft 63 kts 37°
2026-04-20 13:04 43.69065 10.40135 8 ft 42 kts 37°
2026-04-20 13:04 43.69211 10.40288 8 ft 11 kts 37°
2026-04-20 13:04 43.69275 10.40301 8 ft 10 kts 317°
2026-04-20 13:04 43.69318 10.40225 8 ft 9 kts 306°
2026-04-20 13:05 43.69357 10.40150 8 ft 9 kts 306°
2026-04-20 13:05 43.69408 10.40101 8 ft 8 kts 348°
2026-04-20 13:05 43.69468 10.40089 8 ft 8 kts 351°
2026-04-20 13:05 43.69524 10.40078 8 ft 7 kts 351°
2026-04-20 13:06 43.69568 10.40069 9 ft 5 kts 351°
2026-04-20 13:06 43.69605 10.40061 10 ft 6 kts 351°
2026-04-20 13:06 43.69655 10.40051 11 ft 6 kts 347°
2026-04-20 13:06 43.69684 10.40013 11 ft 5 kts 290°
2026-04-20 13:07 43.69691 10.39956 11 ft 7 kts 277°
2026-04-20 13:07 43.69700 10.39874 11 ft 8 kts 277°
2026-04-20 13:07 43.69678 10.39808 11 ft 7 kts 206°
2026-04-20 13:07 43.69655 10.39793 11 ft 3 kts 234°
2026-04-20 13:08 43.69655 10.39741 11 ft 3 kts 282°
2026-04-20 13:08 43.69655 10.39737 11 ft 2 kts 279°
2026-04-20 13:08 43.69658 10.39717 11 ft 0 kts 278°